Kailua Kona, HI

7:09 AM HST on December 10, 2016 (GMT -1000)
Kona International At Keahole

Weather History for PHKO - May, 2014

Change the Weather History Date:

Saturday, May 17, 2014

  Actual Average Record
Temperature  
Mean Temperature 80 °F -  
Max Temperature 84 °F 80 °F 90 °F (1986)
Min Temperature 75 °F 70 °F 66 °F (2004)
Cooling Degree Days 14    
Growing Degree Days 30 (Base 50)    
Moisture  
Dew Point 67 °F    
Average Humidity 66    
Maximum Humidity 78    
Minimum Humidity 56    
Precipitation  
Precipitation 0.01 in - - ()
Sea Level Pressure  
Sea Level Pressure 29.98 in    
Wind  
Wind Speed 5 mph (WNW)    
Max Wind Speed 12 mph    
Max Gust Speed -    
Visibility 10 miles    
Events Rain    
Averages and records for this station are not official NWS values.
T = Trace of Precipitation, MM = Missing Value Source: NWS Daily Summary

Daily Weather History Graph

Daily Weather History Graph

Search for Another Location

Airport or City:

Trip Planner

Search our weather history database for the weather conditions in past years. The results will help you decide how hot, cold, wet, or windy it might be!

Date:

Astronomy

May. 17, 2014 Rise Set
Actual Time 5:47 AM HST 6:53 PM HST
Civil Twilight 5:24 AM HST 7:17 PM HST
Nautical Twilight 4:56 AM HST 7:45 PM HST
Astronomical Twilight 4:27 AM HST 8:14 PM HST
Moon 10:07 PM HST (5/17) 8:41 AM HST (5/17)
Length of Visible Light 13h 53m
Length of Day
13h 05m
Waning Gibbous, 87% of the Moon is Illuminated
May 17
Waning Gibbous
May 21
Last Quarter
May 28
New
Jun 5
First Quarter
Jun 12
Full

Hourly Weather History & Observations

Time (HST) Temp. Heat Index Dew Point Humidity Pressure Visibility Wind Dir Wind Speed Gust Speed Precip Events Conditions
12:53 AM 79.0 °F - 66.9 °F 66% 30.01 in 10.0 mi NW 3.5 mph - N/A   Overcast
1:53 AM 78.1 °F - 66.0 °F 66% 30.00 in 10.0 mi North 5.8 mph - N/A   Overcast
2:53 AM 78.1 °F - 66.0 °F 66% 29.99 in 10.0 mi NNE 4.6 mph - N/A   Overcast
3:53 AM 78.1 °F - 66.0 °F 66% 29.98 in 10.0 mi NE 3.5 mph - N/A   Overcast
4:53 AM 77.0 °F - 66.0 °F 69% 29.98 in 10.0 mi Calm Calm - N/A   Mostly Cloudy
5:49 AM 75.2 °F - 66.2 °F 73% 29.99 in 8.0 mi Calm Calm - 0.01 in Rain Rain
5:53 AM 75.9 °F - 66.9 °F 74% 29.99 in 8.0 mi Calm Calm - 0.01 in Rain Light Rain
6:16 AM 77.0 °F - 68.0 °F 74% 29.99 in 10.0 mi ENE 4.6 mph - 0.00 in   Overcast
6:26 AM 75.2 °F - 68.0 °F 78% 29.99 in 10.0 mi NE 4.6 mph - 0.00 in Rain Light Rain
6:41 AM 75.2 °F - 68.0 °F 78% 29.99 in 10.0 mi Calm Calm - 0.00 in   Overcast
6:53 AM 75.9 °F - 68.0 °F 76% 30.00 in 10.0 mi ESE 3.5 mph - 0.00 in Rain Light Rain
7:53 AM 79.0 °F - 68.0 °F 69% 30.00 in 10.0 mi Calm Calm - 0.00 in   Overcast
8:53 AM 80.1 °F 82.3 °F 66.9 °F 64% 30.00 in 10.0 mi West 4.6 mph - N/A   Partly Cloudy
9:53 AM 82.0 °F 84.9 °F 68.0 °F 62% 30.00 in 10.0 mi WSW 9.2 mph - N/A   Clear
10:53 AM 82.0 °F 84.9 °F 68.0 °F 62% 30.00 in 10.0 mi WSW 10.4 mph - N/A   Clear
11:53 AM 82.0 °F 84.5 °F 66.9 °F 60% 29.99 in 10.0 mi SW 11.5 mph - N/A   Overcast
12:53 PM 84.0 °F 86.5 °F 66.9 °F 56% 29.97 in 10.0 mi SW 11.5 mph - N/A   Overcast
1:53 PM 82.0 °F 84.9 °F 68.0 °F 62% 29.96 in 10.0 mi SSW 9.2 mph - N/A   Overcast
2:53 PM 81.0 °F 83.8 °F 68.0 °F 65% 29.95 in 10.0 mi SSW 8.1 mph - N/A   Overcast
3:53 PM 82.0 °F 84.5 °F 66.9 °F 60% 29.94 in 10.0 mi SW 6.9 mph - N/A   Overcast
4:53 PM 81.0 °F 83.0 °F 66.0 °F 60% 29.94 in 10.0 mi West 4.6 mph - N/A   Overcast
5:53 PM 81.0 °F 83.0 °F 66.0 °F 60% 29.94 in 10.0 mi NW 6.9 mph - N/A   Overcast
6:53 PM 80.1 °F 82.3 °F 66.9 °F 64% 29.96 in 10.0 mi NW 8.1 mph - N/A   Overcast
7:53 PM 80.1 °F 82.3 °F 66.9 °F 64% 29.97 in 10.0 mi NW 6.9 mph - N/A   Overcast
8:53 PM 80.1 °F 82.7 °F 68.0 °F 67% 29.99 in 10.0 mi WNW 6.9 mph - N/A   Overcast
9:53 PM 79.0 °F - 66.9 °F 66% 30.01 in 10.0 mi West 9.2 mph - N/A   Overcast
10:53 PM 80.1 °F 81.9 °F 64.9 °F 60% 30.01 in 10.0 mi NW 4.6 mph - N/A   Scattered Clouds
11:53 PM 77.0 °F - 66.0 °F 69% 29.99 in 10.0 mi NE 3.5 mph - N/A   Mostly Cloudy